Regional Weather Roundup
Issued by NWS Grand Forks, ND

Home | Current Version | Previous Version | Text Only | Print | Product List | Glossary Off
Versions: 1 2 3 4 5 6 7 8 9 10 11 12 13 14 15 16 17 18 19 20 21 22 23 24 25 26 27 28 29 30 31 32 33 34 35 36 37 38 39 40 41 42 43 44 45 46 47 48 49 50

000
ASUS43 KFGF 261510
RWRFGF
PRAIRIE TO PINES  WEATHER ROUNDUP
NATIONAL WEATHER SERVICE EASTERN NORTH DAKOTA/GRAND FORKS ND
900 AM CST FRI DEC 26 2014

 **SATELLITE DATA USED TO AUGMENT SKY COVER AT AUTOMATED STATIONS**
 *****  WEATHER ACROSS EASTERN NORTH DAKOTA  *****

CITY           SKY/WX    TMP DP  RH WIND       PRES   REMARKS
GRAND FORKS    CLOUDY    23  18  81 NW12      30.16R WCI  12
GRAND FRKS AFB FLURRIES  22  22  98 NW8       30.16R WCI  12
GRAND FRKS NWS   N/A     23 N/A N/A N13         N/A  WCI  11
DEVILS LAKE    CLOUDY    12   7  79 NW12      30.15R WCI  -2
FARGO          CLOUDY    24  18  77 N13       30.14R WCI  12
WAHPETON ARPT  CLOUDY    25  21  86 N14       30.13R WCI  13
$$

 ***** WEATHER ACROSS CENTRAL AND WESTERN NORTH DAKOTA  *****

CITY           SKY/WX    TMP DP  RH WIND       PRES   REMARKS
BISMARCK       CLOUDY    13   8  81 N10       30.19R WCI   0
MINOT          CLOUDY     8   3  80 W9        30.18R WCI  -5
JAMESTOWN      CLOUDY    16  12  84 NW14      30.15R WCI   2
MINOT AFB      CLOUDY     8   6  89 NW8       30.18S WCI  -4
GARRISON         N/A      9   5  84 NW16      30.16R WCI  -8
WILLISTON      CLOUDY    13   8  81 CALM      30.16R
DICKINSON      CLOUDY    18  11  74 NW7       30.09R WCI   9
HETTINGER      CLOUDY    15  11  83 CALM      30.12R
$$

 *****  OTHER AIRPORT OBSERVATIONS IN OUR AREA  *****

CITY           SKY/WX    TMP DP  RH WIND       PRES   REMARKS
WALHALLA         N/A     10   9  92 W7        30.19R WCI   0
GRAFTON AIRPOR NOT AVBL
VALLEY CITY AR CLOUDY    21  21 100 N10       30.14R WCI  10
CANDO          CLOUDY     7   1  78 N10       30.18R WCI  -8
CAVALIER APRT  FLURRIES  16  10  79 NW9       30.18R WCI   4
GWINNER        CLOUDY    27  27 100 N9        30.14R WCI  17
SHEYENNE NWR     N/A     23  19  84 N7        29.95  WCI  15
ROLLA          FAIR      -2  -8  78 NW10      30.15R WCI -19
 ***** THE ABOVE OBSERVATIONS ARE NON NWS ARE NOT QUALITY
       CONTROLLED AND MAY MIS-REPORT RAIN FOR SNOW...
$$

  *****  WEATHER ACROSS NORTHERN MINNESOTA  *****

CITY           SKY/WX    TMP DP  RH WIND       PRES   REMARKS
FLAG ISLAND    CLOUDY    19  18  93 NW13      30.10R WCI   7
WARROAD        CLOUDY    19  16  86 W3        30.12R
ROSEAU         FLURRIES  21  18  86 NW3       30.12R
HALLOCK        CLOUDY    21  19  93 NW10      30.15R WCI  10
THF RVR FALLS  CLOUDY    21  18  86 NW7       30.12R WCI  13
BAUDETTE       CLOUDY    22  18  85 NW8       30.08R FOG     WCI  12
WASKISH        CLOUDY    21  18  86 CALM      30.09R
CROOKSTON      FLURRIES  21  19  93 N9        30.16R WCI  11
STEPHEN NDAWN    N/A     21  14  73 N5          N/A  WCI  15
GREENBUSH NDAW   N/A     19  18  93 NW8         N/A  WCI   9
$$
  *****  WEATHER ACROSS CENTRAL AND WEST MINNESOTA  *****

CITY           SKY/WX    TMP DP  RH WIND       PRES   REMARKS
FOSSTON        CLOUDY    21  19  93 NW9       30.11R FOG     WCI  11
BEMIDJI        CLOUDY    23  19  85 N7        30.07R FOG     WCI  14
PARK RAPIDS    CLOUDY    25  19  78 N7        30.06R WCI  17
ELBOW LAKE     CLOUDY    24  23  96 NW12      30.08R WCI  13
WADENA         CLOUDY    25  19  80 N7        30.06R WCI  17
DETROIT LAKES  CLOUDY    23  21  93 N6        30.09R WCI  16
MOORHEAD       CLOUDY    25  23  93 N10       30.14R WCI  15
FERGUS FALLS   CLOUDY    23  21  93 N14       30.13R FOG     WCI  11
MORRIS MN      PTCLDY    25  25 100 N16       30.07R WCI  12
STAPLES        CLOUDY    25  21  86 N9        30.05R WCI  15
$$
  *****  WEATHER ELSEWHERE ACROSS MINNESOTA  *****

CITY           SKY/WX    TMP DP  RH WIND       PRES   REMARKS
DULUTH         CLOUDY    27  22  81 N7        30.00R WCI  19
INTRNTL FALLS  CLOUDY    22  18  85 NW7       30.05R WCI  13
ELY            CLOUDY    25  23  93 CALM      30.01R
CLOQUET        CLOUDY    27  23  86 N5        30.00S WCI  21
WHEATON        CLOUDY    21  19  93 NW15      30.13R WCI   8
BRAINERD       CLOUDY    26  23  88 N8        30.04R WCI  18
HIBBING        CLOUDY    27  23  85 NW6       30.02R WCI  20
ALEXANDRIA     CLOUDY    26  21  81 N7        30.05R WCI  18
SAINT CLOUD    CLOUDY    31  24  75 N9        30.03R WCI  23
MINNEAPOLIS    LGT SNOW  32  28  85 N10       29.98R FOG     WCI  24
$$

  *****  WEATHER ACROSS SOUTH DAKOTA  *****

CITY           SKY/WX    TMP DP  RH WIND       PRES   REMARKS
SIOUX FALLS    CLOUDY    27  23  85 N18       30.03R WCI  14
BROOKINGS      NOT AVBL
WATERTOWN      CLOUDY    22  18  85 N15       30.04R WCI   9
HURON          PTCLDY    23  17  78 N16       30.09S WCI  10
SISSETON         N/A     23  20  88 N15       30.11R WCI  10
ABERDEEN       CLOUDY    24  21  88 N10       30.14R FOG     WCI  14
MITCHELL       PTCLDY    24  22  91 N13       30.10R WCI  12
PIERRE         CLOUDY    23  19  85 N13       30.12R WCI  11
MOBRIDGE       CLOUDY    22  17  81 N13       30.12R WCI  10
RAPID CITY     CLOUDY    19  14  81 N7        30.08R WCI  10
$$

  *****  SOME WEATHER IN NEARBY STATES *****

CITY           SKY/WX    TMP DP  RH WIND       PRES   REMARKS
GLASGOW MT     CLOUDY    18  13  80 E12       30.07S WCI   5
GREAT FALLS MT LGT SNOW  21  18  86 N14       30.06R FOG     WCI   8
CHEYENNE WY    LGT SNOW  12   7  80 NW6       29.89R WCI   3
SCOTTSBLUFF NE CLOUDY    17  14  88 W3        30.03R
OMAHA NE       CLOUDY    34  32  92 N16       29.98R FOG     WCI  24
DES MOINES IA  PTSUNNY   33  29  85 NW12      29.93R WCI  24
DAVENPORT IA   PTSUNNY   41  33  73 S13       29.97R
CHICAGO IL     PTSUNNY   40  34  79 SW13G18   30.02R
EAU CLAIRE WI  CLOUDY    32  29  88 NE5       29.94R
LA CROSSE WI   SUNNY     31  29  92 CALM      29.93R
$$

  *****  SOME NATIONAL WEATHER *****

CITY           SKY/WX    TMP DP  RH WIND       PRES   REMARKS
LA GUARDIA NY  MOSUNNY   43  29  57 NW13      30.25S
RALEIGH NC     MOSUNNY   42  35  76 CALM      30.36S
ATLANTA GA     MOSUNNY   45  36  70 E5        30.34R
NEW ORLEANS LA PTSUNNY   58  50  75 E8        30.22R
OKLAHOMA CITY  PTSUNNY   49  43  80 S10       29.90R
ALBUQUERQUE NM FOG       30  29  96 S3        29.81R VSB 1/8
SALT LAKE CITY MOCLDY    26  22  84 N6        29.95R WCI  19
LOS ANGELES CA CLEAR     45  22  40 E6        30.04R
BOISE ID       CLOUDY    29  24  82 NW7       30.13R WCI  22
SEATTLE WA     FOG       37  35  92 SE5       30.35R VSB 1/4
$$

*** WEATHER ACROSS MANITOBA...SASKATCHEWAN AND ONTARIO ***
                ***ONTARIO***

CITY           SKY/WX    TMP DP  RH WIND       PRES   REMARKS
GERALDTON      LGT SNOW  28  27  93 W2        29.94  VSB 1
THUNDER BAY    CLOUDY    28  25  86 VRB2      30.01R
SIOUX LOOKOUT  NOT AVBL
TORONTO        PTSUNNY   37  32  81 SW12      30.18R
BIG TROUT LK   FLURRIES  14  14 100 NW7       29.98R WCI   4
PICKLE LAKE    FLURRIES  19  16  86 W3        29.98R
DRYDEN         FLURRIES  21  19  93 W10       30.03R WCI  10
KENORA         FLURRIES  14  10  85 NW13      30.08R WCI   0
$$
                *** MANITOBA***

CITY           SKY/WX    TMP DP  RH WIND       PRES   REMARKS
BRANDON        MOCLDY    -8 -11  84 W15       30.20R WCI -29
DAUPHIN        FLURRIES  -2  -8  78 W8        30.23R WCI -17
ISLAND LAKE    FLURRIES  -2  -6  84 W16       30.11R WCI -23
PILOT MOUND    NOT AVBL
THE PAS        PTCLDY   -18 -22  83 SW5       30.20R WCI -31
THOMPSON       PTCLDY   -24 -31  69 W5        30.10S WCI -38
WINNIPEG       FLURRIES  10   5  79 NE7       30.20R WCI   0
CHURCHILL      FLURRIES  -9 -15  77 W14       30.01S WCI -31
GILLAM         FLURRIES  -9 -15  77 W9        30.05S WCI -27
$$
                ***SASKATCHEWAN***

CITY           SKY/WX    TMP DP  RH WIND       PRES   REMARKS
ESTEVAN        MOCLDY    -8 -11  84 N3        30.18R
KINDERSLEY     PTCLDY    -2  -6  84 S6        30.09F WCI -14
LLOYDMINSTER   CLOUDY     5   1  85 SW2       30.05R
PRINCE ALBERT  FLURRIES -15 -18  84 VRB2      30.17S
REGINA         CLOUDY     1  -2  85 N7        30.16R WCI -11
YORKTON        CLOUDY    -8 -11  84 NW7       30.17R WCI -22
N. BATTLEFORD  CLOUDY     5   3  92 SE8       30.14S WCI  -8
LA RONGE       NOT AVBL
SASKATOON      NOT AVBL
SWIFT CURRENT  FLURRIES   9   5  85 SE6       30.05S WCI  -1
$$
NOTE: THESE ARE AUTOMATED STATIONS WITH LIMITED QUALITY CONTROL
      "FAIR" INDICATES FEW OR NO CLOUDS BELOW 12,000 FEET WITH NO
      SIGNIFICANT WEATHER AND/OR OBSTRUCTIONS TO VISIBILITY.
      SKY/WX - SKY CONDITION AND SIGNIFICANT WEATHER.
      TMP - AIR TEMPERATURE.    DP   - DEWPOINT TEMPERATURE.
      RH  - RELATIVE HUMIDITY.  PRES - PRESSURE.
      HX  - HEAT INDEX.         WCI  - WIND CHILL INDEX.
$


USA.gov is the U.S. government's official web portal to all federal, state and local government web resources and services.